Year,Month,Day,Hour,Minute,Value (Times are PST for temperature in C)
2009,07,30,00,00,22.60
2009,07,30,00,01,22.60
2009,07,30,00,02,22.50
2009,07,30,00,03,22.40
2009,07,30,00,04,22.30
2009,07,30,00,05,22.30
2009,07,30,00,06,22.20
2009,07,30,00,07,22.20
2009,07,30,00,08,22.10
2009,07,30,00,09,22.10
2009,07,30,00,10,22.00
2009,07,30,00,11,22.00
2009,07,30,00,12,21.90
2009,07,30,00,13,21.80
2009,07,30,00,14,21.80
2009,07,30,00,15,21.70
2009,07,30,00,16,21.70
2009,07,30,00,17,21.70
2009,07,30,00,18,21.60
2009,07,30,00,19,21.60
2009,07,30,00,20,21.60
2009,07,30,00,21,21.60
2009,07,30,00,22,21.60
2009,07,30,00,23,21.60
2009,07,30,00,24,21.60
2009,07,30,00,25,21.60
2009,07,30,00,26,21.60
2009,07,30,00,27,21.60
2009,07,30,00,28,21.60
2009,07,30,00,29,21.40
2009,07,30,00,30,21.40
2009,07,30,00,31,21.40
2009,07,30,00,32,21.30
2009,07,30,00,33,21.30
2009,07,30,00,34,21.30
2009,07,30,00,35,21.30
2009,07,30,00,36,21.30
2009,07,30,00,37,21.30
2009,07,30,00,38,21.30
2009,07,30,00,39,21.30
2009,07,30,00,40,21.30
2009,07,30,00,41,21.30
2009,07,30,00,42,21.30
2009,07,30,00,43,21.30
2009,07,30,00,44,21.30
2009,07,30,00,45,21.30
2009,07,30,00,46,21.30
2009,07,30,00,47,21.30
2009,07,30,00,48,21.30
2009,07,30,00,49,21.30
2009,07,30,00,50,21.30
2009,07,30,00,51,21.30
2009,07,30,00,52,21.30
2009,07,30,00,53,21.30
2009,07,30,00,54,21.30
2009,07,30,00,55,21.30
2009,07,30,00,56,21.30
2009,07,30,00,57,21.30
2009,07,30,00,58,21.30
2009,07,30,00,59,21.30
2009,07,30,01,00,21.30
2009,07,30,01,01,21.30
2009,07,30,01,02,21.30
2009,07,30,01,03,21.30
2009,07,30,01,04,21.30
2009,07,30,01,05,21.30
2009,07,30,01,06,21.30
2009,07,30,01,07,21.30
2009,07,30,01,08,21.30
2009,07,30,01,09,21.20
2009,07,30,01,10,21.20
2009,07,30,01,11,21.10
2009,07,30,01,12,21.10
2009,07,30,01,13,21.10
2009,07,30,01,14,21.00
2009,07,30,01,15,21.00
2009,07,30,01,16,21.00
2009,07,30,01,17,20.90
2009,07,30,01,18,20.90
2009,07,30,01,19,20.90
2009,07,30,01,20,20.90
2009,07,30,01,21,20.80
2009,07,30,01,22,20.80
2009,07,30,01,23,20.70
2009,07,30,01,24,20.70
2009,07,30,01,25,20.60
2009,07,30,01,26,20.60
2009,07,30,01,27,20.50
2009,07,30,01,28,20.40
2009,07,30,01,29,20.40
2009,07,30,01,30,20.30
2009,07,30,01,31,20.20
2009,07,30,01,32,20.20
2009,07,30,01,33,20.20
2009,07,30,01,34,20.20
2009,07,30,01,35,20.20
2009,07,30,01,36,20.10
2009,07,30,01,37,20.00
2009,07,30,01,38,19.90
2009,07,30,01,39,19.90
2009,07,30,01,40,19.90
2009,07,30,01,41,19.80
2009,07,30,01,42,19.70
2009,07,30,01,43,19.70
2009,07,30,01,44,19.60
2009,07,30,01,45,19.50
2009,07,30,01,46,19.50
2009,07,30,01,47,19.40
2009,07,30,01,48,19.40
2009,07,30,01,49,19.30
2009,07,30,01,50,19.30
2009,07,30,01,51,19.30
2009,07,30,01,52,19.30
2009,07,30,01,53,19.20
2009,07,30,01,54,19.20
2009,07,30,01,55,19.20
2009,07,30,01,56,19.10
2009,07,30,01,57,19.10
2009,07,30,01,58,19.10
2009,07,30,01,59,19.10
2009,07,30,02,00,19.00
2009,07,30,02,01,18.90
2009,07,30,02,02,18.90
2009,07,30,02,03,18.80
2009,07,30,02,04,18.70
2009,07,30,02,05,18.60
2009,07,30,02,06,18.60
2009,07,30,02,07,18.50
2009,07,30,02,08,18.40
2009,07,30,02,09,18.30
2009,07,30,02,10,18.20
2009,07,30,02,11,18.10
2009,07,30,02,12,18.10
2009,07,30,02,13,17.90
2009,07,30,02,14,17.90
2009,07,30,02,15,17.90
2009,07,30,02,16,17.90
2009,07,30,02,17,17.80
2009,07,30,02,18,17.80
2009,07,30,02,19,17.70
2009,07,30,02,20,17.70
2009,07,30,02,21,17.70
2009,07,30,02,22,17.70
2009,07,30,02,23,17.70
2009,07,30,02,24,17.70
2009,07,30,02,25,17.70
2009,07,30,02,26,17.70
2009,07,30,02,27,17.70
2009,07,30,02,28,17.70
2009,07,30,02,29,17.80
2009,07,30,02,30,17.80
2009,07,30,02,31,17.80
2009,07,30,02,32,17.80
2009,07,30,02,33,17.80
2009,07,30,02,34,17.90
2009,07,30,02,35,17.90
2009,07,30,02,36,17.90
2009,07,30,02,37,17.90
2009,07,30,02,38,17.90
2009,07,30,02,39,17.90
2009,07,30,02,40,17.90
2009,07,30,02,41,17.90
2009,07,30,02,42,17.90
2009,07,30,02,43,17.90
2009,07,30,02,44,17.90
2009,07,30,02,45,17.90
2009,07,30,02,46,17.90
2009,07,30,02,47,17.90
2009,07,30,02,48,18.10
2009,07,30,02,49,18.10
2009,07,30,02,50,18.10
2009,07,30,02,51,18.10
2009,07,30,02,52,18.10
2009,07,30,02,53,18.10
2009,07,30,02,54,18.10
2009,07,30,02,55,18.10
2009,07,30,02,56,18.10
2009,07,30,02,57,18.10
2009,07,30,02,58,18.10
2009,07,30,02,59,18.10
2009,07,30,03,00,18.10
2009,07,30,03,01,18.10
2009,07,30,03,02,18.10
2009,07,30,03,03,18.10
2009,07,30,03,04,17.90
2009,07,30,03,05,17.90
2009,07,30,03,06,17.90
2009,07,30,03,07,17.90
2009,07,30,03,08,17.90
2009,07,30,03,09,17.90
2009,07,30,03,10,17.90
2009,07,30,03,11,17.90
2009,07,30,03,12,17.90
2009,07,30,03,13,17.80
2009,07,30,03,14,17.80
2009,07,30,03,15,17.80
2009,07,30,03,16,17.80
2009,07,30,03,17,17.80
2009,07,30,03,18,17.80
2009,07,30,03,19,17.80
2009,07,30,03,20,17.80
2009,07,30,03,21,17.80
2009,07,30,03,22,17.80
2009,07,30,03,23,17.80
2009,07,30,03,24,17.80
2009,07,30,03,25,17.80
2009,07,30,03,26,17.80
2009,07,30,03,27,17.80
2009,07,30,03,28,17.80
2009,07,30,03,29,17.80
2009,07,30,03,30,17.80
2009,07,30,03,31,17.80
2009,07,30,03,32,17.80
2009,07,30,03,33,17.80
2009,07,30,03,34,17.70
2009,07,30,03,35,17.70
2009,07,30,03,36,17.70
2009,07,30,03,37,17.70
2009,07,30,03,38,17.70
2009,07,30,03,39,17.60
2009,07,30,03,40,17.60
2009,07,30,03,41,17.60
2009,07,30,03,42,17.50
2009,07,30,03,43,17.50
2009,07,30,03,44,17.40
2009,07,30,03,45,17.40
2009,07,30,03,46,17.30
2009,07,30,03,47,17.30
2009,07,30,03,48,17.30
2009,07,30,03,49,17.30
2009,07,30,03,50,17.20
2009,07,30,03,51,17.20
2009,07,30,03,52,17.20
2009,07,30,03,53,17.10
2009,07,30,03,54,17.10
2009,07,30,03,55,17.10
2009,07,30,03,56,17.00
2009,07,30,03,57,17.00
2009,07,30,03,58,17.00
2009,07,30,03,59,17.00
2009,07,30,04,00,17.00
2009,07,30,04,01,16.90
2009,07,30,04,02,16.90
2009,07,30,04,03,16.90
2009,07,30,04,04,16.90
2009,07,30,04,05,16.90
2009,07,30,04,06,16.90
2009,07,30,04,07,16.90
2009,07,30,04,08,16.90
2009,07,30,04,09,16.80
2009,07,30,04,10,16.80
2009,07,30,04,11,16.80
2009,07,30,04,12,16.80
2009,07,30,04,13,16.80
2009,07,30,04,14,16.80
2009,07,30,04,15,16.80
2009,07,30,04,16,16.80
2009,07,30,04,17,16.80
2009,07,30,04,18,16.80
2009,07,30,04,19,16.70
2009,07,30,04,20,16.70
2009,07,30,04,21,16.70
2009,07,30,04,22,16.70
2009,07,30,04,23,16.70
2009,07,30,04,24,16.70
2009,07,30,04,25,16.70
2009,07,30,04,26,16.70
2009,07,30,04,27,16.70
2009,07,30,04,28,16.70
2009,07,30,04,29,16.70
2009,07,30,04,30,16.70
2009,07,30,04,31,16.70
2009,07,30,04,32,16.70
2009,07,30,04,33,16.70
2009,07,30,04,34,16.70
2009,07,30,04,35,16.70
2009,07,30,04,36,16.70
2009,07,30,04,37,16.70
2009,07,30,04,38,16.70
2009,07,30,04,39,16.70
2009,07,30,04,40,16.70
2009,07,30,04,41,16.70
2009,07,30,04,42,16.70
2009,07,30,04,43,16.70
2009,07,30,04,44,16.70
2009,07,30,04,45,16.80
2009,07,30,04,46,16.80
2009,07,30,04,47,16.80
2009,07,30,04,48,16.80
2009,07,30,04,49,16.80
2009,07,30,04,50,16.80
2009,07,30,04,51,16.80
2009,07,30,04,52,16.80
2009,07,30,04,53,16.80
2009,07,30,04,54,16.80
2009,07,30,04,55,16.80
2009,07,30,04,56,16.80
2009,07,30,04,57,16.80
2009,07,30,04,58,16.80
2009,07,30,04,59,16.80
2009,07,30,05,00,16.80
2009,07,30,05,01,16.80
2009,07,30,05,02,16.80
2009,07,30,05,03,16.80
2009,07,30,05,04,16.80
2009,07,30,05,05,16.70
2009,07,30,05,06,16.70
2009,07,30,05,07,16.70
2009,07,30,05,08,16.80
2009,07,30,05,09,16.80
2009,07,30,05,10,16.80
2009,07,30,05,11,16.70
2009,07,30,05,12,16.70
2009,07,30,05,13,16.70
2009,07,30,05,14,16.70
2009,07,30,05,15,16.70
2009,07,30,05,16,16.70
2009,07,30,05,17,16.70
2009,07,30,05,18,16.70
2009,07,30,05,19,16.80
2009,07,30,05,20,16.80
2009,07,30,05,21,16.80
2009,07,30,05,22,16.80
2009,07,30,05,23,16.90
2009,07,30,05,24,16.90
2009,07,30,05,25,16.90
2009,07,30,05,26,16.90
2009,07,30,05,27,16.90
2009,07,30,05,28,16.90
2009,07,30,05,29,16.90
2009,07,30,05,30,16.90
2009,07,30,05,31,17.00
2009,07,30,05,32,17.00
2009,07,30,05,33,17.00
2009,07,30,05,34,17.00
2009,07,30,05,35,17.00
2009,07,30,05,36,17.00
2009,07,30,05,37,17.00
2009,07,30,05,38,17.00
2009,07,30,05,39,17.00
2009,07,30,05,40,17.00
2009,07,30,05,41,17.00
2009,07,30,05,42,17.00
2009,07,30,05,43,17.00
2009,07,30,05,44,17.00
2009,07,30,05,45,17.00
2009,07,30,05,46,17.00
2009,07,30,05,47,17.00
2009,07,30,05,48,17.00
2009,07,30,05,49,17.00
2009,07,30,05,50,17.00
2009,07,30,05,51,17.00
2009,07,30,05,52,17.00
2009,07,30,05,53,17.00
2009,07,30,05,54,17.00
2009,07,30,05,55,17.00
2009,07,30,05,56,17.00
2009,07,30,05,57,17.00
2009,07,30,05,58,16.90
2009,07,30,05,59,16.90
2009,07,30,06,00,16.90
2009,07,30,06,01,16.90
2009,07,30,06,02,16.90
2009,07,30,06,03,16.90
2009,07,30,06,04,16.90
2009,07,30,06,05,16.90
2009,07,30,06,06,16.90
2009,07,30,06,07,16.90
2009,07,30,06,08,16.90
2009,07,30,06,09,16.90
2009,07,30,06,10,16.90
2009,07,30,06,11,16.90
2009,07,30,06,12,16.90
2009,07,30,06,13,16.90
2009,07,30,06,14,16.90
2009,07,30,06,15,16.90
2009,07,30,06,16,16.90
2009,07,30,06,17,16.90
2009,07,30,06,18,16.90
2009,07,30,06,19,16.90
2009,07,30,06,20,16.90
2009,07,30,06,21,16.90
2009,07,30,06,22,16.90
2009,07,30,06,23,16.90
2009,07,30,06,24,16.90
2009,07,30,06,25,16.90
2009,07,30,06,26,17.00
2009,07,30,06,27,17.00
2009,07,30,06,28,17.00
2009,07,30,06,29,17.00
2009,07,30,06,30,17.00
2009,07,30,06,31,17.00
2009,07,30,06,32,17.00
2009,07,30,06,33,17.10
2009,07,30,06,34,17.10
2009,07,30,06,35,17.10
2009,07,30,06,36,17.20
2009,07,30,06,37,17.20
2009,07,30,06,38,17.20
2009,07,30,06,39,17.30
2009,07,30,06,40,17.30
2009,07,30,06,41,17.30
2009,07,30,06,42,17.30
2009,07,30,06,43,17.30
2009,07,30,06,44,17.40
2009,07,30,06,45,17.40
2009,07,30,06,46,17.40
2009,07,30,06,47,17.40
2009,07,30,06,48,17.40
2009,07,30,06,49,17.40
2009,07,30,06,50,17.40
2009,07,30,06,51,17.40
2009,07,30,06,52,17.50
2009,07,30,06,53,17.50
2009,07,30,06,54,17.50
2009,07,30,06,55,17.50
2009,07,30,06,56,17.50
2009,07,30,06,57,17.40
2009,07,30,06,58,17.40
2009,07,30,06,59,17.40
2009,07,30,07,00,17.40
2009,07,30,07,01,17.30
2009,07,30,07,02,17.30
2009,07,30,07,03,17.30
2009,07,30,07,04,17.20
2009,07,30,07,05,17.20
2009,07,30,07,06,17.00
2009,07,30,07,07,16.90
2009,07,30,07,08,16.80
2009,07,30,07,09,16.70
2009,07,30,07,10,16.70
2009,07,30,07,11,16.60
2009,07,30,07,12,16.60
2009,07,30,07,13,16.40
2009,07,30,07,14,16.40
2009,07,30,07,15,16.40
2009,07,30,07,16,16.40
2009,07,30,07,17,16.30
2009,07,30,07,18,16.30
2009,07,30,07,19,16.30
2009,07,30,07,20,16.30
2009,07,30,07,21,16.30
2009,07,30,07,22,16.30
2009,07,30,07,23,16.30
2009,07,30,07,24,16.30
2009,07,30,07,25,16.30
2009,07,30,07,26,16.30
2009,07,30,07,27,16.30
2009,07,30,07,28,16.30
2009,07,30,07,29,16.30
2009,07,30,07,30,16.30
2009,07,30,07,31,16.30
2009,07,30,07,32,16.30
2009,07,30,07,33,16.40
2009,07,30,07,34,16.40
2009,07,30,07,35,16.40
2009,07,30,07,36,16.40
2009,07,30,07,37,16.40
2009,07,30,07,38,16.40
2009,07,30,07,39,16.40
2009,07,30,07,40,16.50
2009,07,30,07,41,16.60
2009,07,30,07,42,16.60
2009,07,30,07,43,16.70
2009,07,30,07,44,16.70
2009,07,30,07,45,16.70
2009,07,30,07,46,16.80
2009,07,30,07,47,16.90
2009,07,30,07,48,16.90
2009,07,30,07,49,17.00
2009,07,30,07,50,17.00
2009,07,30,07,51,17.20
2009,07,30,07,52,17.20
2009,07,30,07,53,17.30
2009,07,30,07,54,17.30
2009,07,30,07,55,17.40
2009,07,30,07,56,17.40
2009,07,30,07,57,17.40
2009,07,30,07,58,17.40
2009,07,30,07,59,17.40
2009,07,30,08,00,17.40
2009,07,30,08,01,17.40
2009,07,30,08,02,17.40
2009,07,30,08,03,17.40
2009,07,30,08,04,17.30
2009,07,30,08,05,17.30
2009,07,30,08,06,17.30
2009,07,30,08,07,17.30
2009,07,30,08,08,17.20
2009,07,30,08,09,17.20
2009,07,30,08,10,17.20
2009,07,30,08,11,17.20
2009,07,30,08,12,17.20
2009,07,30,08,13,17.20
2009,07,30,08,14,17.30
2009,07,30,08,15,17.30
2009,07,30,08,16,17.30
2009,07,30,08,17,17.30
2009,07,30,08,18,17.40
2009,07,30,08,19,17.50
2009,07,30,08,20,17.60
2009,07,30,08,21,17.70
2009,07,30,08,22,17.80
2009,07,30,08,23,17.90
2009,07,30,08,24,18.00
2009,07,30,08,25,18.10
2009,07,30,08,26,18.20
2009,07,30,08,27,18.20
2009,07,30,08,28,18.40
2009,07,30,08,29,18.50
2009,07,30,08,30,18.60
2009,07,30,08,31,18.60
2009,07,30,08,32,18.70
2009,07,30,08,33,18.70
2009,07,30,08,34,18.80
2009,07,30,08,35,18.90
2009,07,30,08,36,19.00
2009,07,30,08,37,19.10
2009,07,30,08,38,19.20
2009,07,30,08,39,19.40
2009,07,30,08,40,19.50
2009,07,30,08,41,19.60
2009,07,30,08,42,19.70
2009,07,30,08,43,19.80
2009,07,30,08,44,19.90
2009,07,30,08,45,19.90
2009,07,30,08,46,20.10
2009,07,30,08,47,20.20
2009,07,30,08,48,20.20
2009,07,30,08,49,20.20
2009,07,30,08,50,20.20
2009,07,30,08,51,20.20
2009,07,30,08,52,20.20
2009,07,30,08,53,20.20
2009,07,30,08,54,20.20
2009,07,30,08,55,20.20
2009,07,30,08,56,20.20
2009,07,30,08,57,20.20
2009,07,30,08,58,20.30
2009,07,30,08,59,20.30
2009,07,30,09,00,20.40
2009,07,30,09,01,20.50
2009,07,30,09,02,20.50
2009,07,30,09,03,20.60
2009,07,30,09,04,20.70
2009,07,30,09,05,20.80
2009,07,30,09,06,20.80
2009,07,30,09,07,20.80
2009,07,30,09,08,20.90
2009,07,30,09,09,20.90
2009,07,30,09,10,21.00
2009,07,30,09,11,21.00
2009,07,30,09,12,20.90
2009,07,30,09,13,20.90
2009,07,30,09,14,20.90
2009,07,30,09,15,20.90
2009,07,30,09,16,20.90
2009,07,30,09,17,20.90
2009,07,30,09,18,20.90
2009,07,30,09,19,21.00
2009,07,30,09,20,21.10
2009,07,30,09,21,21.10
2009,07,30,09,22,21.00
2009,07,30,09,23,21.00
2009,07,30,09,24,21.00
2009,07,30,09,25,20.90
2009,07,30,09,26,20.80
2009,07,30,09,27,20.80
2009,07,30,09,28,20.80
2009,07,30,09,29,20.80
2009,07,30,09,30,20.80
2009,07,30,09,31,20.80
2009,07,30,09,32,20.80
2009,07,30,09,33,20.80
2009,07,30,09,34,20.80
2009,07,30,09,35,20.80
2009,07,30,09,36,20.80
2009,07,30,09,37,21.00
2009,07,30,09,38,21.00
2009,07,30,09,39,21.10
2009,07,30,09,40,21.20
2009,07,30,09,41,21.20
2009,07,30,09,42,21.20
2009,07,30,09,43,21.20
2009,07,30,09,44,21.10
2009,07,30,09,45,21.10
2009,07,30,09,46,21.10
2009,07,30,09,47,21.00
2009,07,30,09,48,21.10
2009,07,30,09,49,21.10
2009,07,30,09,50,21.10
2009,07,30,09,51,21.10
2009,07,30,09,52,21.20
2009,07,30,09,53,21.20
2009,07,30,09,54,21.20
2009,07,30,09,55,21.20
2009,07,30,09,56,21.20
2009,07,30,09,57,21.20
2009,07,30,09,58,21.20
2009,07,30,09,59,21.20
2009,07,30,10,00,21.20
2009,07,30,10,01,21.20
2009,07,30,10,02,21.30
2009,07,30,10,03,21.30
2009,07,30,10,04,21.20
2009,07,30,10,05,21.10
2009,07,30,10,06,21.10
2009,07,30,10,07,21.00
2009,07,30,10,08,21.00
2009,07,30,10,09,21.00
2009,07,30,10,10,20.90
2009,07,30,10,11,20.90
2009,07,30,10,12,20.90
2009,07,30,10,13,20.80
2009,07,30,10,14,20.70
2009,07,30,10,15,20.60
2009,07,30,10,16,20.50
2009,07,30,10,17,20.40
2009,07,30,10,18,20.30
2009,07,30,10,19,20.30
2009,07,30,10,20,20.30
2009,07,30,10,21,20.30
2009,07,30,10,22,20.30
2009,07,30,10,23,20.30
2009,07,30,10,24,20.40
2009,07,30,10,25,20.50
2009,07,30,10,26,20.50
2009,07,30,10,27,20.70
2009,07,30,10,28,20.90
2009,07,30,10,29,21.00
2009,07,30,10,30,21.10
2009,07,30,10,31,21.00
2009,07,30,10,32,20.90
2009,07,30,10,33,20.90
2009,07,30,10,34,20.90
2009,07,30,10,35,21.00
2009,07,30,10,36,21.00
2009,07,30,10,37,21.10
2009,07,30,10,38,21.00
2009,07,30,10,39,20.90
2009,07,30,10,40,20.80
2009,07,30,10,41,20.90
2009,07,30,10,42,21.00
2009,07,30,10,43,21.10
2009,07,30,10,44,21.20
2009,07,30,10,45,21.20
2009,07,30,10,46,21.20
2009,07,30,10,47,21.10
2009,07,30,10,48,21.10
2009,07,30,10,49,21.00
2009,07,30,10,50,21.00
2009,07,30,10,51,21.00
2009,07,30,10,52,21.00
2009,07,30,10,53,20.90
2009,07,30,10,54,20.90
2009,07,30,10,55,20.80
2009,07,30,10,56,20.90
2009,07,30,10,57,20.90
2009,07,30,10,58,21.00
2009,07,30,10,59,21.00
2009,07,30,11,00,21.00
2009,07,30,11,01,21.00
2009,07,30,11,02,21.00
2009,07,30,11,03,21.10
2009,07,30,11,04,21.10
2009,07,30,11,05,21.10
2009,07,30,11,06,21.20
2009,07,30,11,07,21.30
2009,07,30,11,08,21.30
2009,07,30,11,09,21.30
2009,07,30,11,10,21.40
2009,07,30,11,11,21.50
2009,07,30,11,12,21.60
2009,07,30,11,13,21.60
2009,07,30,11,14,21.70
2009,07,30,11,15,21.80
2009,07,30,11,16,21.80
2009,07,30,11,17,21.90
2009,07,30,11,18,22.00
2009,07,30,11,19,22.10
2009,07,30,11,20,22.30
2009,07,30,11,21,22.60
2009,07,30,11,22,22.80
2009,07,30,11,23,23.00
2009,07,30,11,24,23.10
2009,07,30,11,25,23.30
2009,07,30,11,26,23.30
2009,07,30,11,27,23.40
2009,07,30,11,28,23.40
2009,07,30,11,29,23.50
2009,07,30,11,30,23.70
2009,07,30,11,31,23.90
2009,07,30,11,32,24.10
2009,07,30,11,33,24.10
2009,07,30,11,34,24.10
2009,07,30,11,35,24.30
2009,07,30,11,36,24.30
2009,07,30,11,37,24.30
2009,07,30,11,38,24.20
2009,07,30,11,39,24.20
2009,07,30,11,40,24.20
2009,07,30,11,41,24.20
2009,07,30,11,42,24.40
2009,07,30,11,43,24.40
2009,07,30,11,44,24.50
2009,07,30,11,45,24.60
2009,07,30,11,46,24.70
2009,07,30,11,47,24.70
2009,07,30,11,48,24.80
2009,07,30,11,49,24.60
2009,07,30,11,50,24.50
2009,07,30,11,51,24.50
2009,07,30,11,52,24.60
2009,07,30,11,53,24.80
2009,07,30,11,54,24.90
2009,07,30,11,55,25.00
2009,07,30,11,56,25.00
2009,07,30,11,57,25.20
2009,07,30,11,58,25.40
2009,07,30,11,59,25.50
2009,07,30,12,00,25.60
2009,07,30,12,01,25.80
2009,07,30,12,02,25.80
2009,07,30,12,03,25.80
2009,07,30,12,04,25.80
2009,07,30,12,05,25.90
2009,07,30,12,06,26.00
2009,07,30,12,07,26.10
2009,07,30,12,08,25.90
2009,07,30,12,09,25.90
2009,07,30,12,10,25.80
2009,07,30,12,11,25.70
2009,07,30,12,12,25.80
2009,07,30,12,13,25.80
2009,07,30,12,14,25.80
2009,07,30,12,15,25.90
2009,07,30,12,16,26.00
2009,07,30,12,17,26.10
2009,07,30,12,18,26.20
2009,07,30,12,19,26.40
2009,07,30,12,20,26.40
2009,07,30,12,21,26.60
2009,07,30,12,22,26.60
2009,07,30,12,23,26.70
2009,07,30,12,24,26.80
2009,07,30,12,25,27.00
2009,07,30,12,26,27.10
2009,07,30,12,27,27.20
2009,07,30,12,28,27.20
2009,07,30,12,29,27.20
2009,07,30,12,30,27.20
2009,07,30,12,31,27.30
2009,07,30,12,32,27.30
2009,07,30,12,33,27.30
2009,07,30,12,34,27.30
2009,07,30,12,35,27.40
2009,07,30,12,36,27.50
2009,07,30,12,37,27.60
2009,07,30,12,38,27.60
2009,07,30,12,39,27.70
2009,07,30,12,40,27.80
2009,07,30,12,41,27.90
2009,07,30,12,42,28.00
2009,07,30,12,43,28.00
2009,07,30,12,44,28.00
2009,07,30,12,45,28.00
2009,07,30,12,46,28.00
2009,07,30,12,47,27.90
2009,07,30,12,48,27.90
2009,07,30,12,49,28.00
2009,07,30,12,50,28.00
2009,07,30,12,51,28.10
2009,07,30,12,52,28.20
2009,07,30,12,53,28.20
2009,07,30,12,54,28.20
2009,07,30,12,55,28.20
2009,07,30,12,56,28.20
2009,07,30,12,57,28.20
2009,07,30,12,58,28.10
2009,07,30,12,59,28.20
2009,07,30,13,00,28.20
2009,07,30,13,01,28.30
2009,07,30,13,02,28.40
2009,07,30,13,03,28.50
2009,07,30,13,04,28.60
2009,07,30,13,05,28.70
2009,07,30,13,06,28.70
2009,07,30,13,07,28.60
2009,07,30,13,08,28.60
2009,07,30,13,09,28.70
2009,07,30,13,10,28.80
2009,07,30,13,11,28.90
2009,07,30,13,12,29.00
2009,07,30,13,13,29.10
2009,07,30,13,14,29.20
2009,07,30,13,15,29.20
2009,07,30,13,16,29.10
2009,07,30,13,17,29.20
2009,07,30,13,18,29.20
2009,07,30,13,19,29.30
2009,07,30,13,20,29.40
2009,07,30,13,21,29.40
2009,07,30,13,22,29.50
2009,07,30,13,23,29.60
2009,07,30,13,24,29.70
2009,07,30,13,25,29.70
2009,07,30,13,26,29.60
2009,07,30,13,27,29.50
2009,07,30,13,28,29.40
2009,07,30,13,29,29.40
2009,07,30,13,30,29.40
2009,07,30,13,31,29.40
2009,07,30,13,32,29.40
2009,07,30,13,33,29.50
2009,07,30,13,34,29.50
2009,07,30,13,35,29.40
2009,07,30,13,36,29.40
2009,07,30,13,37,29.50
2009,07,30,13,38,29.60
2009,07,30,13,39,29.70
2009,07,30,13,40,29.90
2009,07,30,13,41,29.90
2009,07,30,13,42,30.10
2009,07,30,13,43,30.10
2009,07,30,13,44,30.10
2009,07,30,13,45,30.20
2009,07,30,13,46,30.30
2009,07,30,13,47,30.30
2009,07,30,13,48,30.30
2009,07,30,13,49,30.30
2009,07,30,13,50,30.30
2009,07,30,13,51,30.40
2009,07,30,13,52,30.40
2009,07,30,13,53,30.40
2009,07,30,13,54,30.60
2009,07,30,13,55,30.60
2009,07,30,13,56,30.70
2009,07,30,13,57,30.70
2009,07,30,13,58,30.80
2009,07,30,13,59,30.90
2009,07,30,14,00,30.90
2009,07,30,14,01,31.00
2009,07,30,14,02,31.10
2009,07,30,14,03,31.10
2009,07,30,14,04,31.10
2009,07,30,14,05,31.10
2009,07,30,14,06,31.10
2009,07,30,14,07,31.00
2009,07,30,14,08,31.00
2009,07,30,14,09,31.10
2009,07,30,14,10,31.10
2009,07,30,14,11,31.10
2009,07,30,14,12,31.20
2009,07,30,14,13,31.20
2009,07,30,14,14,31.30
2009,07,30,14,15,31.30
2009,07,30,14,16,31.30
2009,07,30,14,17,31.40
2009,07,30,14,18,31.40
2009,07,30,14,19,31.50
2009,07,30,14,20,31.60
2009,07,30,14,21,31.50
2009,07,30,14,22,31.40
2009,07,30,14,23,31.40
2009,07,30,14,24,31.30
2009,07,30,14,25,31.30
2009,07,30,14,26,31.20
2009,07,30,14,27,31.30
2009,07,30,14,28,31.30
2009,07,30,14,29,31.40
2009,07,30,14,30,31.40
2009,07,30,14,31,31.40
2009,07,30,14,32,31.60
2009,07,30,14,33,31.70
2009,07,30,14,34,31.70
2009,07,30,14,35,31.70
2009,07,30,14,36,31.80
2009,07,30,14,37,31.90
2009,07,30,14,38,31.90
2009,07,30,14,39,31.90
2009,07,30,14,40,31.90
2009,07,30,14,41,31.90
2009,07,30,14,42,31.90
2009,07,30,14,43,31.70
2009,07,30,14,44,31.70
2009,07,30,14,45,31.70
2009,07,30,14,46,31.60
2009,07,30,14,47,31.60
2009,07,30,14,48,31.60
2009,07,30,14,49,31.50
2009,07,30,14,50,31.40
2009,07,30,14,51,31.40
2009,07,30,14,52,31.40
2009,07,30,14,53,31.40
2009,07,30,14,54,31.40
2009,07,30,14,55,31.40
2009,07,30,14,56,31.40
2009,07,30,14,57,31.30
2009,07,30,14,58,31.20
2009,07,30,14,59,31.30
2009,07,30,15,00,31.40
2009,07,30,15,01,31.50
2009,07,30,15,02,31.60
2009,07,30,15,03,31.60
2009,07,30,15,04,31.60
2009,07,30,15,05,31.70
2009,07,30,15,06,31.70
2009,07,30,15,07,31.70
2009,07,30,15,08,31.70
2009,07,30,15,09,31.70
2009,07,30,15,10,31.70
2009,07,30,15,11,31.70
2009,07,30,15,12,31.70
2009,07,30,15,13,31.70
2009,07,30,15,14,31.70
2009,07,30,15,15,31.60
2009,07,30,15,16,31.50
2009,07,30,15,17,31.40
2009,07,30,15,18,31.40
2009,07,30,15,19,31.30
2009,07,30,15,20,31.30
2009,07,30,15,21,31.20
2009,07,30,15,22,31.20
2009,07,30,15,23,31.20
2009,07,30,15,24,31.30
2009,07,30,15,25,31.30
2009,07,30,15,26,31.40
2009,07,30,15,27,31.40
2009,07,30,15,28,31.40
2009,07,30,15,29,31.40
2009,07,30,15,30,31.40
2009,07,30,15,31,31.40
2009,07,30,15,32,31.50
2009,07,30,15,33,31.60
2009,07,30,15,34,31.60
2009,07,30,15,35,31.50
2009,07,30,15,36,31.40
2009,07,30,15,37,31.30
2009,07,30,15,38,31.40
2009,07,30,15,39,31.40
2009,07,30,15,40,31.60
2009,07,30,15,41,31.50
2009,07,30,15,42,31.40
2009,07,30,15,43,31.30
2009,07,30,15,44,31.20
2009,07,30,15,45,31.10
2009,07,30,15,46,31.10
2009,07,30,15,47,31.10
2009,07,30,15,48,31.10
2009,07,30,15,49,31.10
2009,07,30,15,50,31.00
2009,07,30,15,51,31.00
2009,07,30,15,52,31.00
2009,07,30,15,53,31.00
2009,07,30,15,54,31.00
2009,07,30,15,55,31.10
2009,07,30,15,56,31.00
2009,07,30,15,57,30.90
2009,07,30,15,58,30.90
2009,07,30,15,59,30.80
2009,07,30,16,00,30.80
2009,07,30,16,01,30.70
2009,07,30,16,02,30.50
2009,07,30,16,03,30.40
2009,07,30,16,04,30.40
2009,07,30,16,05,30.30
2009,07,30,16,06,30.30
2009,07,30,16,07,30.30
2009,07,30,16,08,30.30
2009,07,30,16,09,30.30
2009,07,30,16,10,30.40
2009,07,30,16,11,30.40
2009,07,30,16,12,30.40
2009,07,30,16,13,30.60
2009,07,30,16,14,30.70
2009,07,30,16,15,30.70
2009,07,30,16,16,30.70
2009,07,30,16,17,30.70
2009,07,30,16,18,30.70
2009,07,30,16,19,30.70
2009,07,30,16,20,30.70
2009,07,30,16,21,30.50
2009,07,30,16,22,30.40
2009,07,30,16,23,30.30
2009,07,30,16,24,30.30
2009,07,30,16,25,30.30
2009,07,30,16,26,30.30
2009,07,30,16,27,30.30
2009,07,30,16,28,30.40
2009,07,30,16,29,30.40
2009,07,30,16,30,30.60
2009,07,30,16,31,30.60
2009,07,30,16,32,30.40
2009,07,30,16,33,30.40
2009,07,30,16,34,30.40
2009,07,30,16,35,30.60
2009,07,30,16,36,30.70
2009,07,30,16,37,30.70
2009,07,30,16,38,30.70
2009,07,30,16,39,30.70
2009,07,30,16,40,30.70
2009,07,30,16,41,30.50
2009,07,30,16,42,30.30
2009,07,30,16,43,30.10
2009,07,30,16,44,30.00
2009,07,30,16,45,29.80
2009,07,30,16,46,29.70
2009,07,30,16,47,29.70
2009,07,30,16,48,29.80
2009,07,30,16,49,29.70
2009,07,30,16,50,29.60
2009,07,30,16,51,29.60
2009,07,30,16,52,29.50
2009,07,30,16,53,29.40
2009,07,30,16,54,29.40
2009,07,30,16,55,29.40
2009,07,30,16,56,29.30
2009,07,30,16,57,29.30
2009,07,30,16,58,29.30
2009,07,30,16,59,29.20
2009,07,30,17,00,29.20
2009,07,30,17,01,29.20
2009,07,30,17,02,29.20
2009,07,30,17,03,29.20
2009,07,30,17,04,29.30
2009,07,30,17,05,29.30
2009,07,30,17,06,29.40
2009,07,30,17,07,29.50
2009,07,30,17,08,29.60
2009,07,30,17,09,29.70
2009,07,30,17,10,29.70
2009,07,30,17,11,29.60
2009,07,30,17,12,29.50
2009,07,30,17,13,29.50
2009,07,30,17,14,29.50
2009,07,30,17,15,29.50
2009,07,30,17,16,29.50
2009,07,30,17,17,29.50
2009,07,30,17,18,29.50
2009,07,30,17,19,29.50